| time (UTC) | temp F | wind direction | speed MPH | gust MPH | rain 1hr in | rain 24hr in | rain mn in | humidity % | barometer mb |
| 20260831101017 | 56 | 0.0 | 2.0 | 0.00 | 0.01 | 0.01 | 67 | 1027.7 | |
| 20260831100017 | 56 | 45 | 1.0 | 2.0 | 0.00 | 0.01 | 0.01 | 65 | 1027.7 |
| 20260831095017 | 57 | 68 | 1.0 | 2.0 | 0.00 | 0.01 | 0.01 | 63 | 1027.6 |
| 20260831094017 | 59 | 68 | 1.0 | 1.0 | 0.00 | 0.01 | 0.01 | 60 | 1027.7 |
| 20260831093017 | 61 | 0.0 | 2.0 | 0.00 | 0.01 | 0.01 | 58 | 1027.7 | |
| 20260831092017 | 61 | 0.0 | 2.0 | 0.00 | 0.01 | 0.01 | 57 | 1027.7 | |
| 20260831091017 | 62 | 0.0 | 2.0 | 0.00 | 0.01 | 0.01 | 56 | 1027.7 | |
| 20260831090017 | 63 | 90 | 1.0 | 1.0 | 0.00 | 0.01 | 0.01 | 55 | 1027.7 |
| 20260831085017 | 63 | 90 | 1.0 | 1.0 | 0.00 | 0.01 | 0.01 | 54 | 1027.6 |
| 20260831084017 | 64 | 90 | 1.0 | 2.0 | 0.00 | 0.01 | 0.01 | 53 | 1027.6 |
| 20260831083017 | 65 | 158 | 1.0 | 1.0 | 0.00 | 0.01 | 0.01 | 53 | 1027.5 |
| 20260831082019 | 66 | 0.0 | 1.0 | 0.00 | 0.01 | 0.01 | 53 | 1027.5 | |
| 20260831081019 | 67 | 0.0 | 0.0 | 0.00 | 0.01 | 0.01 | 49 | 1027.5 | |
| 20260831080019 | 67 | 0.0 | 2.0 | 0.00 | 0.01 | 0.01 | 49 | 1027.5 | |
| 20260831075019 | 68 | 0.0 | 0.0 | 0.00 | 0.01 | 0.01 | 48 | 1027.5 | |
| 20260831074019 | 69 | 0.0 | 1.0 | 0.00 | 0.01 | 0.01 | 46 | 1027.5 | |
| 20260831073018 | 70 | 158 | 1.0 | 1.0 | 0.00 | 0.01 | 0.01 | 45 | 1027.5 |
| 20260831072019 | 70 | 158 | 1.0 | 1.0 | 0.00 | 0.01 | 0.01 | 43 | 1027.4 |
| 20260831071018 | 71 | 0.0 | 1.0 | 0.00 | 0.01 | 0.01 | 42 | 1027.4 | |
| 20260831070018 | 71 | 158 | 1.0 | 3.0 | 0.00 | 0.01 | 0.01 | 42 | 1027.4 |
| 20260831065018 | 72 | 158 | 2.0 | 6.0 | 0.00 | 0.01 | 0.01 | 39 | 1027.5 |
| 20260831064018 | 73 | 113 | 1.0 | 3.0 | 0.00 | 0.01 | 0.01 | 36 | 1027.5 |
| 20260831063018 | 73 | 0.0 | 2.0 | 0.00 | 0.01 | 0.01 | 34 | 1027.5 | |
| 20260831062018 | 73 | 0.0 | 2.0 | 0.00 | 0.01 | 0.01 | 34 | 1027.5 | |
| 20260831061018 | 73 | 135 | 1.0 | 1.0 | 0.00 | 0.01 | 0.01 | 35 | 1027.5 |
| 20260831060018 | 73 | 113 | 1.0 | 2.0 | 0.00 | 0.01 | 0.01 | 37 | 1027.6 |
| 20260831055018 | 73 | 90 | 1.0 | 2.0 | 0.00 | 0.01 | 0.01 | 34 | 1027.7 |
| 20260831054018 | 73 | 113 | 1.0 | 3.0 | 0.00 | 0.01 | 0.01 | 34 | 1027.7 |
| 20260831053018 | 73 | 158 | 1.0 | 4.0 | 0.00 | 0.01 | 0.01 | 35 | 1027.8 |
| 20260831052018 | 73 | 158 | 1.0 | 2.0 | 0.00 | 0.01 | 0.01 | 33 | 1027.8 |
| 20260831051018 | 74 | 248 | 2.0 | 4.0 | 0.00 | 0.01 | 0.01 | 34 | 1027.9 |
| 20260831050018 | 74 | 293 | 1.0 | 3.0 | 0.00 | 0.01 | 0.01 | 33 | 1028.0 |
| 20260831045018 | 74 | 270 | 2.0 | 4.0 | 0.00 | 0.01 | 0.01 | 33 | 1028.1 |
| 20260831044018 | 74 | 180 | 1.0 | 3.0 | 0.00 | 0.01 | 0.01 | 32 | 1028.2 |
| 20260831043018 | 75 | 0.0 | 2.0 | 0.00 | 0.01 | 0.01 | 33 | 1028.2 | |
| 20260831042018 | 74 | 23 | 1.0 | 2.0 | 0.00 | 0.01 | 0.01 | 33 | 1028.3 |
| 20260831041018 | 73 | 0.0 | 2.0 | 0.00 | 0.01 | 0.01 | 33 | 1028.3 | |
| 20260831040018 | 74 | 90 | 1.0 | 2.0 | 0.00 | 0.01 | 0.01 | 32 | 1028.4 |
| 20260831035018 | 73 | 293 | 1.0 | 3.0 | 0.00 | 0.01 | 0.01 | 33 | 1028.6 |
| 20260831034018 | 73 | 23 | 1.0 | 2.0 | 0.00 | 0.01 | 0.01 | 34 | 1028.8 |
| 20260831033018 | 73 | 293 | 2.0 | 4.0 | 0.00 | 0.01 | 0.01 | 35 | 1028.9 |
| 20260831032018 | 72 | 68 | 1.0 | 3.0 | 0.00 | 0.01 | 0.01 | 38 | 1029.0 |
| 20260831031018 | 72 | 293 | 2.0 | 5.0 | 0.00 | 0.01 | 0.01 | 39 | 1029.3 |
| 20260831030018 | 71 | 270 | 1.0 | 3.0 | 0.00 | 0.01 | 0.01 | 40 | 1029.3 |
| 20260831025018 | 71 | 338 | 1.0 | 3.0 | 0.00 | 0.01 | 0.01 | 40 | 1029.4 |
| 20260831024018 | 70 | 293 | 2.0 | 4.0 | 0.00 | 0.01 | 0.01 | 43 | 1029.5 |
| 20260831023018 | 70 | 158 | 1.0 | 2.0 | 0.00 | 0.01 | 0.01 | 47 | 1029.6 |
| 20260831022018 | 70 | 270 | 2.0 | 4.0 | 0.00 | 0.01 | 0.01 | 48 | 1029.8 |
| 20260831021018 | 69 | 248 | 2.0 | 4.0 | 0.00 | 0.01 | 0.01 | 49 | 1030.0 |
| 20260831020018 | 68 | 248 | 2.0 | 4.0 | 0.00 | 0.01 | 0.01 | 51 | 1030.2 |
| 20260831015018 | 68 | 248 | 3.0 | 8.0 | 0.00 | 0.01 | 0.01 | 49 | 1030.4 |
| 20260831014018 | 69 | 248 | 3.0 | 7.0 | 0.00 | 0.01 | 0.01 | 52 | 1030.5 |
| 20260831013018 | 68 | 0 | 2.0 | 5.0 | 0.00 | 0.01 | 0.01 | 55 | 1030.8 |
| 20260831012018 | 67 | 315 | 2.0 | 4.0 | 0.00 | 0.01 | 0.01 | 57 | 1030.9 |
| 20260831011018 | 67 | 315 | 1.0 | 3.0 | 0.00 | 0.01 | 0.01 | 59 | 1031.0 |
| 20260831010018 | 66 | 315 | 2.0 | 4.0 | 0.00 | 0.01 | 0.01 | 62 | 1031.2 |
| 20260831005018 | 65 | 23 | 1.0 | 2.0 | 0.00 | 0.01 | 0.01 | 64 | 1031.3 |
| 20260831004018 | 64 | 248 | 2.0 | 5.0 | 0.00 | 0.01 | 0.01 | 65 | 1031.4 |
| 20260831003017 | 63 | 248 | 1.0 | 3.0 | 0.00 | 0.01 | 0.01 | 69 | 1031.5 |
| 20260831002017 | 62 | 45 | 1.0 | 2.0 | 0.00 | 0.01 | 0.01 | 71 | 1031.6 |
| 20260831001017 | 61 | 23 | 1.0 | 3.0 | 0.00 | 0.01 | 0.01 | 73 | 1031.7 |
| 20260831000017 | 60 | 0.0 | 2.0 | 0.00 | 0.01 | 0.01 | 77 | 1031.7 | |
| 20260830235017 | 59 | 45 | 1.0 | 3.0 | 0.00 | 0.01 | 0.01 | 78 | 1031.6 |
| 20260830234017 | 57 | 0.0 | 2.0 | 0.00 | 0.01 | 0.01 | 81 | 1031.6 | |
| 20260830233018 | 56 | 315 | 1.0 | 2.0 | 0.00 | 0.01 | 0.01 | 83 | 1031.6 |
| 20260830232017 | 55 | 0.0 | 2.0 | 0.00 | 0.01 | 0.01 | 86 | 1031.6 | |
| 20260830231017 | 53 | 45 | 1.0 | 4.0 | 0.00 | 0.01 | 0.01 | 89 | 1031.6 |
| 20260830230028 | 52 | 23 | 1.0 | 2.0 | 0.00 | 0.01 | 0.01 | 93 | 1031.6 |
| 20260830225017 | 50 | 0.0 | 2.0 | 0.00 | 0.01 | 0.01 | 94 | 1031.6 | |
| 20260830224017 | 49 | 0.0 | 2.0 | 0.00 | 0.01 | 0.01 | 94 | 1031.6 | |
| 20260830223017 | 47 | 23 | 1.0 | 2.0 | 0.00 | 0.01 | 0.01 | 94 | 1031.5 |
| 20260830222017 | 46 | 45 | 1.0 | 2.0 | 0.00 | 0.01 | 0.01 | 94 | 1031.4 |
| 20260830221017 | 44 | 45 | 1.0 | 2.0 | 0.00 | 0.01 | 0.01 | 94 | 1031.4 |
| 20260830220017 | 42 | 45 | 1.0 | 2.0 | 0.01 | 0.01 | 0.01 | 94 | 1031.3 |
| 20260830215017 | 41 | 45 | 1.0 | 2.0 | 0.01 | 0.01 | 0.01 | 93 | 1031.3 |
| 20260830214017 | 39 | 23 | 1.0 | 2.0 | 0.01 | 0.01 | 0.01 | 93 | 1031.2 |
| 20260830213017 | 38 | 0.0 | 2.0 | 0.01 | 0.01 | 0.01 | 93 | 1031.1 | |
| 20260830212017 | 37 | 0.0 | 1.0 | 0.01 | 0.01 | 0.01 | 92 | 1030.9 | |
| 20260830211017 | 37 | 0.0 | 2.0 | 0.01 | 0.01 | 0.01 | 92 | 1030.9 | |
| 20260830210017 | 37 | 0.0 | 1.0 | 0.00 | 0.00 | 0.00 | 92 | 1030.9 | |
| 20260830205017 | 37 | 0.0 | 2.0 | 0.00 | 0.00 | 0.00 | 91 | 1030.8 | |
| 20260830204017 | 37 | 0.0 | 2.0 | 0.00 | 0.00 | 0.00 | 91 | 1030.9 | |
| 20260830203017 | 37 | 0.0 | 1.0 | 0.00 | 0.00 | 0.00 | 91 | 1030.7 | |
| 20260830202017 | 38 | 0.0 | 0.0 | 0.00 | 0.00 | 0.00 | 91 | 1030.7 | |
| 20260830201017 | 38 | 0.0 | 2.0 | 0.00 | 0.00 | 0.00 | 91 | 1030.7 | |
| 20260830200017 | 38 | 0.0 | 2.0 | 0.00 | 0.00 | 0.00 | 91 | 1030.6 | |
| 20260830195017 | 38 | 0.0 | 1.0 | 0.00 | 0.00 | 0.00 | 91 | 1030.4 | |
| 20260830194017 | 38 | 0.0 | 2.0 | 0.00 | 0.00 | 0.00 | 91 | 1030.5 | |
| 20260830193017 | 39 | 0.0 | 2.0 | 0.00 | 0.00 | 0.00 | 91 | 1030.4 | |
| 20260830192017 | 39 | 0.0 | 2.0 | 0.00 | 0.00 | 0.00 | 91 | 1030.4 | |
| 20260830191017 | 39 | 0.0 | 2.0 | 0.00 | 0.00 | 0.00 | 91 | 1030.4 | |
| 20260830190017 | 39 | 0.0 | 2.0 | 0.00 | 0.00 | 0.00 | 91 | 1030.3 | |
| 20260830185017 | 39 | 0.0 | 2.0 | 0.00 | 0.00 | 0.00 | 90 | 1030.2 | |
| 20260830184017 | 39 | 0.0 | 0.0 | 0.00 | 0.00 | 0.00 | 90 | 1030.3 | |
| 20260830183019 | 39 | 0.0 | 0.0 | 0.00 | 0.00 | 0.00 | 90 | 1030.2 | |
| 20260830182019 | 39 | 0.0 | 1.0 | 0.00 | 0.00 | 0.00 | 89 | 1030.2 | |
| 20260830181018 | 40 | 0.0 | 1.0 | 0.00 | 0.00 | 0.00 | 89 | 1030.2 | |
| 20260830180018 | 40 | 0.0 | 1.0 | 0.00 | 0.00 | 0.00 | 89 | 1030.3 | |
| 20260830175018 | 40 | 0.0 | 0.0 | 0.00 | 0.00 | 0.00 | 89 | 1030.3 | |
| 20260830174018 | 41 | 0.0 | 1.0 | 0.00 | 0.00 | 0.00 | 89 | 1030.3 | |
| 20260830173018 | 41 | 0.0 | 2.0 | 0.00 | 0.00 | 0.00 | 89 | 1030.2 | |
| 20260830172018 | 42 | 0.0 | 0.0 | 0.00 | 0.00 | 0.00 | 90 | 1030.3 | |
| 20260830171018 | 42 | 0.0 | 0.0 | 0.00 | 0.00 | 0.00 | 90 | 1030.3 | |
| 20260830170018 | 42 | 0.0 | 0.0 | 0.00 | 0.00 | 0.00 | 90 | 1030.4 | |
| 20260830165018 | 42 | 0.0 | 1.0 | 0.00 | 0.00 | 0.00 | 91 | 1030.4 | |
| 20260830164018 | 43 | 0.0 | 2.0 | 0.00 | 0.00 | 0.00 | 91 | 1030.4 | |
| 20260830163018 | 43 | 0.0 | 0.0 | 0.00 | 0.00 | 0.00 | 90 | 1030.4 | |
| 20260830162018 | 43 | 0.0 | 0.0 | 0.00 | 0.00 | 0.00 | 90 | 1030.5 | |
| 20260830161018 | 43 | 0.0 | 0.0 | 0.00 | 0.00 | 0.00 | 90 | 1030.6 | |
| 20260830160018 | 43 | 0.0 | 0.0 | 0.00 | 0.00 | 0.00 | 89 | 1030.7 | |
| 20260830155018 | 43 | 0.0 | 2.0 | 0.00 | 0.00 | 0.00 | 89 | 1030.8 | |
| 20260830154018 | 43 | 0.0 | 2.0 | 0.00 | 0.00 | 0.00 | 89 | 1030.8 | |
| 20260830153018 | 43 | 0.0 | 0.0 | 0.00 | 0.00 | 0.00 | 89 | 1030.9 | |
| 20260830152018 | 44 | 0.0 | 0.0 | 0.00 | 0.00 | 0.00 | 89 | 1030.9 | |
| 20260830151018 | 44 | 0.0 | 0.0 | 0.00 | 0.00 | 0.00 | 89 | 1030.8 | |
| 20260830150018 | 44 | 0.0 | 0.0 | 0.00 | 0.00 | 0.00 | 89 | 1030.8 | |
| 20260830145018 | 44 | 0.0 | 1.0 | 0.00 | 0.00 | 0.00 | 89 | 1030.9 | |
| 20260830144018 | 45 | 0.0 | 0.0 | 0.00 | 0.00 | 0.00 | 89 | 1030.8 | |
| 20260830143018 | 45 | 0.0 | 0.0 | 0.00 | 0.00 | 0.00 | 89 | 1030.8 | |
| 20260830142018 | 45 | 0.0 | 0.0 | 0.00 | 0.00 | 0.00 | 89 | 1030.8 | |
| 20260830141018 | 45 | 0.0 | 0.0 | 0.00 | 0.00 | 0.00 | 89 | 1030.8 | |
| 20260830140025 | 45 | 0.0 | 1.0 | 0.00 | 0.00 | 0.00 | 87 | 1030.9 | |
| 20260830135018 | 45 | 0.0 | 1.0 | 0.00 | 0.00 | 0.00 | 86 | 1030.9 | |
| 20260830134018 | 45 | 0.0 | 2.0 | 0.00 | 0.00 | 0.00 | 85 | 1031.0 | |
| 20260830133018 | 46 | 0.0 | 0.0 | 0.00 | 0.00 | 0.00 | 84 | 1031.1 | |
| 20260830132018 | 47 | 0.0 | 2.0 | 0.00 | 0.00 | 0.00 | 84 | 1031.0 | |
| 20260830131018 | 48 | 0.0 | 2.0 | 0.00 | 0.00 | 0.00 | 85 | 1031.0 | |
| 20260830130018 | 48 | 0.0 | 0.0 | 0.00 | 0.00 | 0.00 | 83 | 1030.9 | |
| 20260830125018 | 48 | 0.0 | 0.0 | 0.00 | 0.00 | 0.00 | 82 | 1030.9 | |
| 20260830124018 | 49 | 0.0 | 0.0 | 0.00 | 0.00 | 0.00 | 82 | 1030.9 | |
| 20260830123018 | 49 | 0.0 | 0.0 | 0.00 | 0.00 | 0.00 | 84 | 1030.9 | |
| 20260830122018 | 49 | 0.0 | 0.0 | 0.00 | 0.00 | 0.00 | 85 | 1030.9 | |
| 20260830121018 | 49 | 0.0 | 0.0 | 0.00 | 0.00 | 0.00 | 84 | 1030.8 | |
| 20260830120017 | 49 | 0.0 | 0.0 | 0.00 | 0.00 | 0.00 | 82 | 1030.9 | |
| 20260830115018 | 50 | 0.0 | 0.0 | 0.00 | 0.00 | 0.00 | 82 | 1030.9 | |
| 20260830114017 | 50 | 0.0 | 0.0 | 0.00 | 0.00 | 0.00 | 80 | 1030.8 | |
| 20260830113018 | 51 | 0.0 | 0.0 | 0.00 | 0.00 | 0.00 | 78 | 1030.9 | |
| 20260830112017 | 51 | 0.0 | 1.0 | 0.00 | 0.00 | 0.00 | 79 | 1030.9 | |
| 20260830111017 | 52 | 0.0 | 2.0 | 0.00 | 0.00 | 0.00 | 79 | 1030.7 | |
| 20260830110017 | 53 | 0.0 | 0.0 | 0.00 | 0.00 | 0.00 | 77 | 1030.7 | |
| 20260830105017 | 53 | 0.0 | 0.0 | 0.00 | 0.00 | 0.00 | 75 | 1030.8 | |
| 20260830104017 | 53 | 0.0 | 0.0 | 0.00 | 0.00 | 0.00 | 76 | 1030.6 | |
| 20260830103017 | 54 | 0.0 | 0.0 | 0.00 | 0.00 | 0.00 | 74 | 1030.6 | |
| 20260830102017 | 55 | 0.0 | 0.0 | 0.00 | 0.00 | 0.00 | 73 | 1030.5 |